Weather History for Saranac Lake, NY

Change the Weather History Date:

Thursday, August 14, 2014

  Actual Average Record
Temperature  
Mean Temperature 53 °F 62 °F  
Max Temperature 57 °F 74 °F 90 °F (2002)
Min Temperature 48 °F 49 °F 37 °F (1961)
Degree Days  
Heating Degree Days 12 4  
Month to date heating degree days 57 56  
Since 1 June heating degree days 359 334  
Since 1 July heating degree days 192 150  
Cooling Degree Days 0 1  
Month to date cooling degree days 1 14  
Year to date cooling degree days 61 89  
Since 1 June cooling degree days 60 86  
Growing Degree Days 2 (Base 50)    
Moisture  
Dew Point 48 °F    
Average Humidity 86    
Maximum Humidity 100    
Minimum Humidity 71    
Precipitation  
Precipitation 0.12 in 0.13 in 1.37 in (2011)
Month to date precipitation 2.32 1.80  
Year to date precipitation 25.32 22.19  
Sea Level Pressure  
Sea Level Pressure 29.79 in    
Wind  
Wind Speed 9 mph (WSW)    
Max Wind Speed 17 mph    
Max Gust Speed 26 mph    
Visibility 8 miles    
Events Rain    
T = Trace of Precipitation, MM = Missing Value Source: NWS Daily Summary

Daily Weather History Graph

Daily Weather History Graph

Search for Another Location

Airport:

Trip Planner

Search our weather history database for the weather conditions in past years. The results will help you decide how hot, cold, wet, or windy it might be!

Date:

Astronomy

Aug. 14, 2014 Rise Set
Actual Time 5:58 AM EDT 8:03 PM EDT
Civil Twilight 5:26 AM EDT 8:35 PM EDT
Nautical Twilight 4:47 AM EDT 9:13 PM EDT
Astronomical Twilight 4:04 AM EDT 9:56 PM EDT
Moon 10:11 PM EDT (8/14) 10:44 AM EDT (8/14)
Length of Visible Light 15h 08m
Length of Day
14h 04m
Waning Gibbous, 79% of the Moon is Illuminated
Aug 14
Waning Gibbous
Aug 17
Last Quarter
Aug 25
New
Sep 2
First Quarter
Sep 8
Full

Hourly Weather History & Observations

Time (EDT) Temp. Dew Point Humidity Pressure Visibility Wind Dir Wind Speed Gust Speed Precip Events Conditions
12:51 AM 54.0 °F 51.1 °F 90% 29.72 in 10.0 mi Variable 6.9 mph - N/A   Overcast
1:10 AM 54.0 °F 51.1 °F 90% 29.74 in 10.0 mi WSW 4.6 mph - N/A   Overcast
1:37 AM 54.0 °F 51.1 °F 90% 29.74 in 10.0 mi WSW 9.2 mph 20.7 mph N/A   Overcast
1:51 AM 54.0 °F 51.1 °F 90% 29.73 in 10.0 mi SW 10.4 mph - N/A   Overcast
2:22 AM 53.1 °F 52.0 °F 96% 29.74 in 2.5 mi SW 8.1 mph - N/A   Overcast
2:31 AM 53.1 °F 52.0 °F 96% 29.74 in 4.0 mi SW 9.2 mph - N/A   Overcast
2:51 AM 52.0 °F 51.1 °F 97% 29.73 in 3.0 mi WSW 10.4 mph 18.4 mph 0.01 in Rain Light Rain
3:46 AM 51.8 °F 50.0 °F 94% 29.74 in 10.0 mi WSW 6.9 mph - 0.01 in   Overcast
3:51 AM 51.1 °F 48.9 °F 92% 29.74 in 10.0 mi WSW 12.7 mph 17.3 mph 0.01 in   Overcast
4:20 AM 50.0 °F 48.0 °F 93% 29.74 in 5.0 mi West 9.2 mph - 0.00 in Rain Light Rain
4:31 AM 48.9 °F 48.0 °F 97% 29.74 in 4.0 mi West 8.1 mph - 0.00 in   Overcast
4:51 AM 48.9 °F 48.0 °F 97% 29.73 in 5.0 mi WSW 8.1 mph - 0.00 in Rain Light Rain
4:53 AM 48.9 °F 48.0 °F 97% 29.73 in 4.0 mi WSW 6.9 mph - 0.00 in Rain Light Rain
5:19 AM 48.9 °F 46.9 °F 93% 29.74 in 10.0 mi WSW 10.4 mph 17.3 mph 0.01 in   Overcast
6:51 AM 48.0 °F 46.0 °F 93% 29.76 in 10.0 mi Variable 3.5 mph - N/A   Overcast
7:51 AM 48.9 °F 46.0 °F 90% 29.77 in 10.0 mi WSW 5.8 mph - N/A   Overcast
8:07 AM 48.9 °F 46.0 °F 90% 29.77 in 10.0 mi WSW 11.5 mph 18.4 mph N/A   Overcast
8:17 AM 48.9 °F 45.0 °F 86% 29.77 in 10.0 mi WSW 13.8 mph 21.9 mph N/A   Overcast
8:51 AM 50.0 °F 45.0 °F 83% 29.78 in 10.0 mi WSW 11.5 mph 16.1 mph N/A   Overcast
9:51 AM 50.0 °F 44.1 °F 80% 29.79 in 10.0 mi WSW 12.7 mph 23.0 mph N/A   Overcast
11:14 AM 53.1 °F 44.1 °F 71% 29.79 in 10.0 mi West 9.2 mph 19.6 mph N/A   Overcast
11:51 AM 54.0 °F 44.1 °F 69% 29.79 in 10.0 mi WSW 11.5 mph - N/A   Overcast
12:11 PM 54.0 °F 44.1 °F 69% 29.79 in 10.0 mi WSW 8.1 mph - N/A   Overcast
12:25 PM 54.0 °F 45.0 °F 72% 29.79 in 10.0 mi SW 13.8 mph 19.6 mph N/A   Overcast
12:51 PM 54.0 °F 44.1 °F 69% 29.79 in 10.0 mi West 6.9 mph 18.4 mph N/A   Overcast
1:51 PM 55.9 °F 46.0 °F 69% 29.79 in 10.0 mi SW 11.5 mph - N/A   Overcast
3:51 PM 57.0 °F 46.9 °F 69% 29.81 in 10.0 mi SW 12.7 mph 23.0 mph 0.01 in   Overcast
5:51 PM 52.0 °F 46.9 °F 83% 29.84 in 10.0 mi WSW 8.1 mph - 0.00 in   Overcast
6:31 PM 51.1 °F 48.0 °F 89% 29.83 in 2.5 mi WSW 8.1 mph - 0.02 in Rain Rain
6:39 PM 51.1 °F 48.9 °F 92% 29.83 in 1.8 mi WSW 6.9 mph - 0.04 in Rain Rain
6:51 PM 51.1 °F 48.9 °F 92% 29.84 in 10.0 mi WSW 8.1 mph - 0.04 in   Overcast
7:48 PM 50.0 °F 48.2 °F 94% 29.84 in 4.0 mi WSW 9.2 mph - 0.01 in Rain Light Rain
7:51 PM 50.0 °F 48.0 °F 93% 29.85 in 4.0 mi WSW 11.5 mph - 0.02 in Rain Light Rain
8:00 PM 50.0 °F 46.9 °F 89% 29.84 in 4.0 mi WSW 8.1 mph 20.7 mph 0.00 in Rain Light Rain
8:49 PM 50.0 °F 46.4 °F 87% 29.84 in 10.0 mi SW 11.5 mph - 0.01 in   Overcast
8:51 PM 50.0 °F 46.9 °F 89% 29.85 in 10.0 mi SW 8.1 mph - 0.01 in   Overcast
9:02 PM 48.9 °F 46.9 °F 93% 29.84 in 10.0 mi SW 8.1 mph - N/A   Overcast
9:51 PM 48.9 °F 48.0 °F 97% 29.85 in 10.0 mi WSW 6.9 mph - N/A   Mostly Cloudy
10:39 PM 50.0 °F 48.0 °F 93% 29.84 in 6.0 mi SW 4.6 mph - 0.00 in Rain Light Rain
11:08 PM 48.9 °F 48.0 °F 97% 29.84 in 10.0 mi WSW 5.8 mph - 0.01 in   Overcast